This is the latest recevied weather packets stored in our database for station/object DL5ARK. If no packets are shown the sender has not sent any weather packets the latest 1 day(s).
| Time | Temp. | Humidity | Pressure | Rain* | Wind** | Luminosity | Snow |
|---|---|---|---|---|---|---|---|
| 1778063268 | 17.78° C | 65% | 992.9 hPa | 0 mm | - | - | - |
| 1778063087 | 17.78° C | 66% | 992.9 hPa | 0 mm | - | - | - |
| 1778062908 | 17.78° C | 66% | 992.9 hPa | 0 mm | - | - | - |
| 1778062727 | 17.78° C | 69% | 992.9 hPa | 0 mm | - | - | - |
| 1778062548 | 17.22° C | 67% | 992.9 hPa | 0 mm | - | - | - |
| 1778062367 | 16.67° C | 68% | 992.9 hPa | 0 mm | - | - | - |
| 1778062188 | 17.22° C | 69% | 992.9 hPa | 0 mm | - | - | - |
| 1778062007 | 17.22° C | 69% | 992.9 hPa | 0 mm | - | - | - |
| 1778061647 | 16.67° C | 69% | 992.9 hPa | 0 mm | - | - | - |
| 1778061467 | 16.67° C | 70% | 992.9 hPa | 0 mm | - | - | - |
| 1778061287 | 16.67° C | 70% | 992.9 hPa | 0 mm | - | - | - |
| 1778061107 | 16.67° C | 69% | 992.9 hPa | 0 mm | - | - | - |
| 1778060928 | 16.11° C | 69% | 992.9 hPa | 0 mm | - | - | - |
| 1778060567 | 16.11° C | 70% | 992.9 hPa | 0 mm | - | - | - |
| 1778060387 | 16.67° C | 72% | 992.9 hPa | 0 mm | - | - | - |
| 1778060207 | 16.67° C | 71% | 992.9 hPa | 0 mm | - | - | - |
| 1778060027 | 16.11° C | 71% | 992.9 hPa | 0 mm | - | - | - |
| 1778059847 | 15.56° C | 70% | 992.9 hPa | 0 mm | - | - | - |
| 1778059487 | 16.11° C | 71% | 992.9 hPa | 0 mm | - | - | - |
| 1778059127 | 16.11° C | 72% | 993.1 hPa | 0 mm | - | - | - |
| 1778058948 | 16.11° C | 72% | 993.1 hPa | 0 mm | - | - | - |
| 1778058768 | 16.11° C | 73% | 993.1 hPa | 0 mm | - | - | - |
| 1778058589 | 16.67° C | 73% | 993.1 hPa | 0 mm | - | - | - |
| 1778058407 | 16.11° C | 73% | 992.9 hPa | 0 mm | - | - | - |
| 1778058228 | 16.11° C | 75% | 992.9 hPa | 0 mm | - | - | - |
* Rain latest hour (hover to see other rain measurements)
** Current wind speed in m/s (hover to see current wind gust speed)